World > North America > United States > Ohio

Cygnet, Ohio Regional Weather

Lat: 41.24N, Lon: 83.64W
Wx Zone: OHZ006
Feedback

Cygnet, OH Regional Weather

Expires:201910240500;;179592
ASUS41 KCLE 240402
RWRCLE
OHIO REGIONAL WEATHER ROUNDUP
NATIONAL WEATHER SERVICE CLEVELAND, OH
1200 AM EDT THU OCT 24 2019

NOTE: "FAIR" INDICATES FEW OR NO CLOUDS BELOW 12,000 FEET WITH NO
SIGNIFICANT WEATHER AND/OR OBSTRUCTIONS TO VISIBILITY.


OHZ001>008-015>018-024>027-034-035-043-044-240500-
   NORTHWEST OHIO
  
CITY           SKY/WX    TMP DP  RH WIND       PRES   REMARKS
DEFIANCE       MOCLDY    55  35  47 S10G22    30.04S                  
FINDLAY        FAIR      53  35  50 S15       30.06S                  
TOLEDO EXPRESS FAIR      54  35  48 SW8       30.04R                  
TOLEDO EXEC    FAIR      51  35  54 S10       30.06R                  
LIMA           NOT AVBL                                               
$$


SKY/WX - Weather  TMP - Temperature  DP - Dew Point  RH - Relative Humidity
WIND - Wind Direction/Speed PRES - Barometric Pressure VSB - Visibility
WCI - Wind Chill Index E13G22 Wind - East Wind 13 mph/Gusts of 22 mph